Time,TemperatureF,DewpointF,PressureIn,WindDirection,WindDirectionDegrees,WindSpeedMPH,WindSpeedGustMPH,Humidity,HourlyPrecipIn,Conditions,Clouds,dailyrainin,SolarRadiationWatts/m^2,SoftwareType,DateUTC
2013-12-17 00:21:00,32.0,20.0,-100.00,NW,306,4.0,9.0,60,0.00,,,0.00,0.000000,,2013-12-17 07:21:00,
2013-12-17 00:32:00,32.0,20.0,-100.00,NW,306,4.0,9.0,60,0.00,,,0.00,0.000000,,2013-12-17 07:32:00,
2013-12-17 00:42:00,32.0,20.0,-100.00,NW,306,4.0,9.0,60,0.00,,,0.00,0.000000,,2013-12-17 07:42:00,
2013-12-17 00:52:00,32.0,20.0,-100.00,NW,306,4.0,9.0,60,0.00,,,0.00,0.000000,,2013-12-17 07:52:00,
2013-12-17 01:22:00,33.0,20.0,-100.00,NW,312,4.0,11.0,59,0.00,,,0.00,0.000000,,2013-12-17 08:22:00,
2013-12-17 01:32:00,33.0,20.0,-100.00,NW,312,4.0,11.0,59,0.00,,,0.00,0.000000,,2013-12-17 08:32:00,
2013-12-17 01:42:00,33.0,20.0,-100.00,NW,312,4.0,11.0,59,0.00,,,0.00,0.000000,,2013-12-17 08:42:00,
2013-12-17 01:52:00,33.0,20.0,-100.00,NW,312,4.0,11.0,59,0.00,,,0.00,0.000000,,2013-12-17 08:52:00,
2013-12-17 02:22:00,31.0,20.0,-100.00,WNW,300,4.0,12.0,63,-99.99,,,0.00,0.000000,,2013-12-17 09:22:00,
2013-12-17 02:33:00,31.0,20.0,-100.00,WNW,300,4.0,12.0,63,-99.99,,,0.00,0.000000,,2013-12-17 09:33:00,
2013-12-17 02:43:00,31.0,20.0,-100.00,WNW,300,4.0,12.0,63,-99.99,,,0.00,0.000000,,2013-12-17 09:43:00,
2013-12-17 02:53:00,31.0,20.0,-100.00,WNW,300,4.0,12.0,63,-99.99,,,0.00,0.000000,,2013-12-17 09:53:00,
2013-12-17 03:23:00,30.0,20.0,-100.00,NW,320,3.0,9.0,67,0.00,,,0.00,0.000000,,2013-12-17 10:23:00,
2013-12-17 03:34:00,30.0,20.0,-100.00,NW,320,3.0,9.0,67,0.00,,,0.00,0.000000,,2013-12-17 10:34:00,
2013-12-17 03:43:00,30.0,20.0,-100.00,NW,320,3.0,9.0,67,0.00,,,0.00,0.000000,,2013-12-17 10:43:00,
2013-12-17 03:52:00,30.0,20.0,-100.00,NW,320,3.0,9.0,67,0.00,,,0.00,0.000000,,2013-12-17 10:52:00,
2013-12-17 04:22:00,28.0,19.0,-100.00,WNW,301,2.0,6.0,69,0.00,,,-99.99,0.000000,,2013-12-17 11:22:00,
2013-12-17 04:33:00,28.0,19.0,-100.00,WNW,301,2.0,6.0,69,0.00,,,-99.99,0.000000,,2013-12-17 11:33:00,
2013-12-17 04:42:00,28.0,19.0,-100.00,WNW,301,2.0,6.0,69,0.00,,,-99.99,0.000000,,2013-12-17 11:42:00,
2013-12-17 04:52:00,28.0,19.0,-100.00,WNW,301,2.0,6.0,69,0.00,,,-99.99,0.000000,,2013-12-17 11:52:00,
2013-12-17 05:22:00,28.0,20.0,-100.00,WSW,246,1.0,4.0,71,0.00,,,0.00,0.000000,,2013-12-17 12:22:00,
2013-12-17 05:32:00,28.0,20.0,-100.00,WSW,246,1.0,4.0,71,0.00,,,0.00,0.000000,,2013-12-17 12:32:00,
2013-12-17 05:42:00,28.0,20.0,-100.00,WSW,246,1.0,4.0,71,0.00,,,0.00,0.000000,,2013-12-17 12:42:00,
2013-12-17 05:52:00,28.0,20.0,-100.00,WSW,246,1.0,4.0,71,0.00,,,0.00,0.000000,,2013-12-17 12:52:00,
2013-12-17 06:22:00,26.0,20.0,-100.00,SW,214,3.0,6.0,77,0.00,,,0.00,0.000000,,2013-12-17 13:22:00,
2013-12-17 06:34:00,26.0,20.0,-100.00,SW,214,3.0,6.0,77,0.00,,,0.00,0.000000,,2013-12-17 13:34:00,
2013-12-17 06:42:00,26.0,20.0,-100.00,SW,214,3.0,6.0,77,0.00,,,0.00,0.000000,,2013-12-17 13:42:00,
2013-12-17 06:52:00,26.0,20.0,-100.00,SW,214,3.0,6.0,77,0.00,,,0.00,0.000000,,2013-12-17 13:52:00,
2013-12-17 07:21:00,24.0,19.0,-100.00,SSW,200,3.0,5.0,80,0.00,,,0.00,0.000000,,2013-12-17 14:21:00,
2013-12-17 07:32:00,24.0,19.0,-100.00,SSW,200,3.0,5.0,80,0.00,,,0.00,0.000000,,2013-12-17 14:32:00,
2013-12-17 07:42:00,24.0,19.0,-100.00,SSW,200,3.0,5.0,80,0.00,,,0.00,0.000000,,2013-12-17 14:42:00,
2013-12-17 07:52:00,24.0,19.0,-100.00,SSW,200,3.0,5.0,80,0.00,,,0.00,0.000000,,2013-12-17 14:52:00,
2013-12-17 08:22:00,25.0,20.0,-100.00,South,177,4.0,7.0,80,0.00,,,0.00,8.000000,,2013-12-17 15:22:00,
2013-12-17 08:34:00,25.0,20.0,-100.00,South,177,4.0,7.0,80,0.00,,,0.00,8.000000,,2013-12-17 15:34:00,
2013-12-17 08:44:00,25.0,20.0,-100.00,South,177,4.0,7.0,80,0.00,,,0.00,8.000000,,2013-12-17 15:44:00,
2013-12-17 08:53:00,25.0,20.0,-100.00,South,177,4.0,7.0,80,0.00,,,0.00,8.000000,,2013-12-17 15:53:00,
2013-12-17 09:23:00,29.0,20.0,-100.00,SSW,199,5.0,7.0,68,0.00,,,0.00,158.000000,,2013-12-17 16:23:00,
2013-12-17 09:33:00,29.0,20.0,-100.00,SSW,199,5.0,7.0,68,0.00,,,0.00,158.000000,,2013-12-17 16:33:00,
2013-12-17 09:43:00,29.0,20.0,-100.00,SSW,199,5.0,7.0,68,0.00,,,0.00,158.000000,,2013-12-17 16:43:00,
2013-12-17 09:52:00,29.0,20.0,-100.00,SSW,199,5.0,7.0,68,0.00,,,0.00,158.000000,,2013-12-17 16:52:00,
2013-12-17 10:42:00,36.0,22.0,-100.00,WNW,289,2.0,6.0,57,0.00,,,0.00,269.000000,,2013-12-17 17:42:00,
2013-12-17 10:53:00,36.0,22.0,-100.00,WNW,289,2.0,6.0,57,0.00,,,0.00,269.000000,,2013-12-17 17:53:00,
2013-12-17 11:21:00,38.0,22.0,-100.00,West,266,2.0,6.0,52,0.00,,,0.00,404.000000,,2013-12-17 18:21:00,
2013-12-17 11:32:00,38.0,22.0,-100.00,West,266,2.0,6.0,52,0.00,,,0.00,404.000000,,2013-12-17 18:32:00,
2013-12-17 11:42:00,38.0,22.0,-100.00,West,266,2.0,6.0,52,0.00,,,0.00,404.000000,,2013-12-17 18:42:00,
2013-12-17 11:52:00,38.0,22.0,-100.00,West,266,2.0,6.0,52,0.00,,,0.00,404.000000,,2013-12-17 18:52:00,
2013-12-17 12:22:00,40.0,21.0,-100.00,SSW,195,6.0,8.0,46,0.00,,,0.00,457.000000,,2013-12-17 19:22:00,
2013-12-17 12:32:00,40.0,21.0,-100.00,SSW,195,6.0,8.0,46,0.00,,,0.00,457.000000,,2013-12-17 19:32:00,
2013-12-17 12:42:00,40.0,21.0,-100.00,SSW,195,6.0,8.0,46,0.00,,,0.00,457.000000,,2013-12-17 19:42:00,
2013-12-17 12:52:00,40.0,21.0,-100.00,SSW,195,6.0,8.0,46,0.00,,,0.00,457.000000,,2013-12-17 19:52:00,
2013-12-17 13:22:00,43.0,22.0,-100.00,West,259,5.0,10.0,43,0.00,,,0.00,425.000000,,2013-12-17 20:22:00,
2013-12-17 13:32:00,43.0,22.0,-100.00,West,259,5.0,10.0,43,0.00,,,0.00,425.000000,,2013-12-17 20:32:00,
2013-12-17 13:42:00,43.0,22.0,-100.00,West,259,5.0,10.0,43,0.00,,,0.00,425.000000,,2013-12-17 20:42:00,
2013-12-17 13:52:00,43.0,22.0,-100.00,West,259,5.0,10.0,43,0.00,,,0.00,425.000000,,2013-12-17 20:52:00,
2013-12-17 14:22:00,45.0,22.0,-100.00,WSW,242,4.0,8.0,39,0.00,,,0.00,369.000000,,2013-12-17 21:22:00,
2013-12-17 14:33:00,45.0,22.0,-100.00,WSW,242,4.0,8.0,39,0.00,,,0.00,369.000000,,2013-12-17 21:33:00,
2013-12-17 14:43:00,45.0,22.0,-100.00,WSW,242,4.0,8.0,39,0.00,,,0.00,369.000000,,2013-12-17 21:43:00,
2013-12-17 14:53:00,45.0,22.0,-100.00,WSW,242,4.0,8.0,39,0.00,,,0.00,369.000000,,2013-12-17 21:53:00,
2013-12-17 15:23:00,46.0,23.0,-100.00,NNE,13,2.0,5.0,40,0.00,,,0.00,230.000000,,2013-12-17 22:23:00,
2013-12-17 15:34:00,46.0,23.0,-100.00,NNE,13,2.0,5.0,40,0.00,,,0.00,230.000000,,2013-12-17 22:34:00,
2013-12-17 15:43:00,46.0,23.0,-100.00,NNE,13,2.0,5.0,40,0.00,,,0.00,230.000000,,2013-12-17 22:43:00,
2013-12-17 15:53:00,46.0,23.0,-100.00,NNE,13,2.0,5.0,40,0.00,,,0.00,230.000000,,2013-12-17 22:53:00,
2013-12-17 16:22:00,42.0,21.0,-100.00,NNE,18,4.0,7.0,42,0.00,,,0.00,20.000000,,2013-12-17 23:22:00,
2013-12-17 16:33:00,42.0,21.0,-100.00,NNE,18,4.0,7.0,42,0.00,,,0.00,20.000000,,2013-12-17 23:33:00,
2013-12-17 16:42:00,42.0,21.0,-100.00,NNE,18,4.0,7.0,42,0.00,,,0.00,20.000000,,2013-12-17 23:42:00,
2013-12-17 16:53:00,42.0,21.0,-100.00,NNE,18,4.0,7.0,42,0.00,,,0.00,20.000000,,2013-12-17 23:53:00,
2013-12-17 17:22:00,39.0,20.0,-100.00,SW,225,2.0,5.0,46,0.00,,,0.00,4.000000,,2013-12-18 00:22:00,
2013-12-17 17:32:00,39.0,20.0,-100.00,SW,225,2.0,5.0,46,0.00,,,0.00,4.000000,,2013-12-18 00:32:00,
2013-12-17 17:42:00,39.0,20.0,-100.00,SW,225,2.0,5.0,46,0.00,,,0.00,4.000000,,2013-12-18 00:42:00,
2013-12-17 17:52:00,39.0,20.0,-100.00,SW,225,2.0,5.0,46,0.00,,,0.00,4.000000,,2013-12-18 00:52:00,
2013-12-17 18:22:00,39.0,20.0,-100.00,WSW,251,3.0,6.0,46,0.00,,,0.00,0.000000,,2013-12-18 01:22:00,
2013-12-17 18:32:00,39.0,20.0,-100.00,WSW,251,3.0,6.0,46,0.00,,,0.00,0.000000,,2013-12-18 01:32:00,
2013-12-17 18:42:00,39.0,20.0,-100.00,WSW,251,3.0,6.0,46,0.00,,,0.00,0.000000,,2013-12-18 01:42:00,
2013-12-17 18:52:00,39.0,20.0,-100.00,WSW,251,3.0,6.0,46,0.00,,,0.00,0.000000,,2013-12-18 01:52:00,
2013-12-17 19:22:00,38.0,20.0,-100.00,NW,322,3.0,6.0,47,0.00,,,0.00,0.000000,,2013-12-18 02:22:00,
2013-12-17 19:32:00,38.0,20.0,-100.00,NW,322,3.0,6.0,47,0.00,,,0.00,0.000000,,2013-12-18 02:32:00,
2013-12-17 19:42:00,38.0,20.0,-100.00,NW,322,3.0,6.0,47,0.00,,,0.00,0.000000,,2013-12-18 02:42:00,
2013-12-17 19:52:00,38.0,20.0,-100.00,NW,322,3.0,6.0,47,0.00,,,0.00,0.000000,,2013-12-18 02:52:00,
2013-12-17 20:22:00,40.0,18.0,-100.00,NW,313,3.0,10.0,41,0.00,,,0.00,0.000000,,2013-12-18 03:22:00,
2013-12-17 20:33:00,40.0,18.0,-100.00,NW,313,3.0,10.0,41,0.00,,,0.00,0.000000,,2013-12-18 03:33:00,
2013-12-17 20:43:00,40.0,18.0,-100.00,NW,313,3.0,10.0,41,0.00,,,0.00,0.000000,,2013-12-18 03:43:00,
2013-12-17 20:53:00,40.0,18.0,-100.00,NW,313,3.0,10.0,41,0.00,,,0.00,0.000000,,2013-12-18 03:53:00,
2013-12-17 23:42:00,43.0,19.0,-100.00,WNW,299,3.0,9.0,37,-99.99,,,0.00,0.000000,,2013-12-18 06:42:00,
2013-12-17 23:52:00,43.0,19.0,-100.00,WNW,299,3.0,9.0,37,-99.99,,,0.00,0.000000,,2013-12-18 06:52:00,